This demonstration page uses our WeatherBlox Daily Observations layout. Learn more.

Left ArrowRight Arrow

31.84235, -102.49876

Hourly Observations for May 15, 2021

Temp ( °F °C ) Dew Point ( °F °C ) Humidity (%) Winds ( mph kmh ) Pressure ( in mb ) Visibility ( mi km ) Precip ( " mm )
12:53 am 00:53 Clear 68 20 56 13.3 65 65 SSE 13 20 29.96 1015 10 16 0.00 0.00
1:53 am 01:53 Clear 68 20 57 13.9 68 68 SSW 7 11 29.96 1015 10 16 0.00 0.00
2:53 am 02:53 Mostly Clear 67 19.4 57 13.9 71 71 S 9 15 29.92 1013 10 16 0.00 0.00
3:53 am 03:53 Clear 67 19.4 57 13.9 71 71 S 16 26 29.85 1011 10 16 0.00 0.00
4:53 am 04:53 Clear 67 19.4 56 13.3 68 68 S 15 24 29.84 1011 10 16 0.00 0.00
5:53 am 05:53 Clear 67 19.4 56 13.3 68 68 S 10 17 29.85 1011 10 16 0.00 0.00
6:53 am 06:53 Sunny 67 19.4 56 13.3 68 68 S 9 15 29.88 1012 10 16 0.00 0.00
7:53 am 07:53 Sunny 67 19.4 56 13.3 68 68 SSE 10 17 29.89 1012 10 16 0.00 0.00
8:28 am 08:28 Mostly Cloudy 67 19.4 57 13.9 71 71 S 8 13 29.92 1013 10 16 0.00 0.00
8:53 am 08:53 Mostly Cloudy 68 20 57 13.9 68 68 S 14 22 29.92 1013 10 16 0.00 0.00
9:51 am 09:51 Partly Cloudy 70 21 57 14 64 64 S 16 26 29.91 1013 10 16 0.00 0.00
9:53 am 09:53 Partly Cloudy 70 21.1 58 14.4 66 66 S 16 26 29.92 1013 10 16 0.00 0.00
10:53 am 10:53 Sunny 71 21.7 59 15 66 66 S 16 26 29.91 1013 10 16 0.00 0.00
11:53 am 11:53 Sunny 76 24.4 58 14.4 54 54 S 14 22 29.89 1012 10 16 0.00 0.00
12:53 pm 12:53 Sunny 80 26.7 58 14.4 47 47 SSE 17 28 29.87 1011 10 16 0.00 0.00
1:53 pm 13:53 Sunny 83 28.3 56 13.3 40 40 S 18 30 29.83 1010 10 16 0.00 0.00
2:53 pm 14:53 Sunny 85 29.4 55 12.8 36 36 S 15 24 29.80 1009 10 16 0.00 0.00
3:53 pm 15:53 Sunny 85 29.4 54 12.2 35 35 SE 13 20 29.77 1008 10 16 0.00 0.00
4:53 pm 16:53 Sunny 86 30 53 11.7 32 32 SSE 16 26 29.73 1007 10 16 0.00 0.00
5:53 pm 17:53 Sunny 86 30 53 11.7 32 32 SSE 20 31 29.71 1006 10 16 0.00 0.00
6:17 pm 18:17 Partly Cloudy with Nearby Thunderstorms 82 27.8 54 12.2 38 38 SE 22 35 29.63 1003 10 16 0.00 0.00
6:30 pm 18:30 Windy with Storms Likely 82 27.8 54 12.2 38 38 S 24 39 29.64 1004 10 16 0.00 0.00
6:53 pm 18:53 Cloudy with Nearby Thunderstorms 77 25 59 15 54 54 SSE 21 33 29.72 1006 9 14 0.00 0.00
7:21 pm 19:21 Cloudy 78 25.6 58 14.4 50 50 S 26 43 29.66 1005 10 16 0.00 0.00
7:53 pm 19:53 Mostly Sunny 78 25.6 57 13.9 48 48 SSE 18 30 29.72 1007 10 16 0.00 0.00
8:53 pm 20:53 Cloudy with Light Rain 75 23.9 57 13.9 54 54 WSW 24 39 29.83 1010 10 16 0.00 0.00
9:03 pm 21:03 Cloudy with Thunderstorms 69 20.6 55 12.8 61 61 WSW 18 30 29.81 1010 10 16 0.00 0.00
9:36 pm 21:36 Cloudy with Light Rain 68 20 57 13.9 68 68 S 7 11 29.83 1010 10 16 0.00 0.00
9:53 pm 21:53 Mostly Cloudy 68 20 58 14.4 70 70 SSW 12 19 29.84 1011 10 16 0.00 0.00
10:53 pm 22:53 Partly Cloudy 67 19.4 57 13.9 71 71 ENE 12 19 29.81 1010 10 16 0.01 0.25
11:53 pm 23:53 Mostly Cloudy with Light Rain 67 19.4 57 13.9 71 71 E 9 15 29.87 1011 10 16 0.00 0.00

Powered by AerisWeather